Theta_e
342 343 345 349 350 352 354 353 352 357 366 358 355 358 354 357 355 357 356 354 356 354 355 351 345 348 351 354 354 353 351 354 355 353 351 346 347 350 348 346 349 348 348 349 350 351 350 350 349 347 347 347 348 350 350 350 351 351 350 350 351 353 354 352 351 352 352 352 353 354 354 353 353 352 352 352 351 349 348 349 350 351 350 350 351 351 352 351 351 351 351 350 348 349 347 346 348
342 345 347 351 352 355 357 355 359 361 360 353 353 359 355 357 357 359 361 362 361 351 352 349 349 355 351 350 351 352 352 349 349 350 349 347 350 351 348 347 348 347 348 350 351 352 351 350 349 348 347 347 348 350 351 351 351 351 350 349 352 353 353 353 352 353 353 353 353 354 354 352 352 353 353 352 351 350 349 349 349 349 349 349 350 350 350 350 350 350 350 351 349 348 347 346 346
345 349 351 354 355 355 357 356 360 357 355 351 350 361 359 357 362 363 364 367 359 348 352 350 351 354 349 353 352 354 353 347 348 349 349 350 351 351 348 347 347 348 348 350 351 352 351 350 349 349 349 349 349 351 350 350 351 351 349 350 352 353 352 352 353 353 353 352 354 354 353 353 353 354 353 352 352 350 349 349 348 347 348 349 349 348 349 350 350 350 351 351 350 350 349 348 347
349 352 352 354 357 356 362 365 367 360 352 352 348 358 366 362 365 361 360 360 351 347 350 350 351 349 352 358 352 353 352 348 350 349 350 351 351 351 348 347 348 349 349 350 350 350 350 349 349 350 350 349 350 350 349 349 350 349 348 350 352 352 351 352 353 353 352 351 353 353 353 354 354 354 352 352 351 350 349 349 348 347 346 347 349 348 348 350 350 350 351 350 349 349 348 348 348
351 354 351 353 362 361 366 368 370 362 350 356 352 355 362 359 364 357 352 351 348 350 349 351 352 349 352 352 349 355 352 349 350 349 351 351 350 350 347 347 348 350 350 349 348 349 350 349 349 350 350 350 350 350 348 348 347 348 348 350 352 352 351 352 353 353 352 352 354 353 353 354 354 353 352 352 351 350 349 349 348 347 346 346 348 348 348 349 349 351 350 349 348 348 348 348 348
353 354 353 354 359 356 362 363 361 358 352 361 357 355 358 353 361 357 349 346 347 350 349 352 350 350 352 347 348 351 348 349 350 349 352 351 350 349 347 347 349 350 349 348 348 348 349 349 349 350 351 350 350 349 348 347 347 348 349 351 352 352 351 351 353 353 353 352 352 354 354 354 353 352 352 352 350 350 349 348 347 346 347 345 345 348 348 349 350 351 350 349 349 349 348 347 347
355 356 357 358 357 356 365 360 357 359 353 360 359 357 360 355 357 354 351 348 347 347 348 350 346 354 354 348 351 347 346 350 349 350 351 351 350 348 347 347 348 349 348 348 348 348 349 349 349 351 351 350 349 349 348 348 348 350 350 351 352 352 351 351 353 352 352 351 351 353 353 354 354 352 352 351 351 351 349 349 349 346 348 344 341 344 346 349 350 350 351 350 350 351 350 348 348
355 359 359 363 366 365 369 362 359 361 355 357 359 359 360 358 354 352 353 349 349 348 348 347 346 359 355 350 355 349 348 349 349 351 350 351 350 348 347 346 346 348 348 347 347 349 350 349 350 351 351 350 349 349 349 348 348 350 350 350 350 350 350 352 353 352 351 351 351 352 352 353 353 351 350 351 351 351 350 350 349 347 346 342 339 340 341 345 348 351 351 350 351 351 350 349 349
356 360 359 362 368 364 363 363 359 358 363 362 360 363 363 362 358 356 357 351 349 349 350 348 350 360 354 351 354 348 350 351 350 351 351 352 350 348 347 344 344 346 347 347 348 349 351 351 350 351 352 351 350 350 349 349 349 349 350 350 350 349 350 352 352 351 350 350 351 351 351 352 352 351 350 351 352 352 351 350 350 349 344 337 335 337 337 339 347 351 350 350 350 350 350 349 349
359 360 360 366 365 357 353 359 360 360 367 363 361 365 364 364 361 355 356 352 350 352 351 348 351 356 353 353 353 349 351 351 351 352 352 351 349 348 346 344 344 345 346 346 349 350 351 351 351 351 352 352 351 351 350 349 349 350 350 351 351 350 351 352 352 351 350 350 351 351 351 352 353 352 351 351 351 352 352 350 349 349 345 339 332 332 334 335 344 351 351 350 350 350 350 348 347
364 361 360 370 364 354 352 357 363 367 368 364 363 363 362 363 360 355 355 354 353 354 351 349 352 352 352 354 352 350 351 352 352 352 351 350 349 347 344 344 344 345 346 346 349 350 351 352 351 352 352 353 352 351 351 350 349 349 352 352 352 352 351 352 352 350 349 350 351 352 351 352 352 351 351 351 351 352 352 350 348 347 344 339 329 327 331 333 340 349 351 350 351 351 351 349 346
366 365 368 373 362 357 358 360 364 371 374 367 360 358 361 360 357 357 356 355 354 353 349 352 353 351 357 356 352 350 351 351 351 352 351 351 349 347 345 345 345 344 345 346 349 350 351 352 352 353 352 352 352 352 351 350 349 350 351 352 352 351 352 353 352 351 351 351 351 352 352 351 350 349 350 350 350 351 350 349 347 344 340 333 330 329 330 333 338 345 349 351 351 351 351 349 346
365 368 376 371 361 365 365 363 365 369 369 365 361 360 362 357 355 356 354 353 351 353 349 351 351 351 358 354 351 349 349 351 350 352 351 351 351 349 348 348 347 344 344 345 347 349 350 352 353 353 353 352 352 352 351 351 350 351 351 352 352 350 351 353 352 352 352 351 350 351 351 350 349 348 348 348 349 349 348 347 343 340 336 332 333 334 333 334 335 340 348 350 351 351 350 349 347
366 366 375 368 361 370 366 361 368 365 359 364 366 365 365 360 359 355 353 355 352 353 348 347 348 352 356 352 352 350 349 350 350 353 352 352 352 350 350 350 349 345 345 345 346 348 349 351 353 353 352 352 352 352 352 352 351 351 352 352 352 351 351 352 351 352 351 350 350 351 351 349 349 347 347 347 347 347 346 343 339 337 336 335 334 333 336 336 334 337 345 349 352 351 350 350 348
363 366 376 372 362 365 365 364 371 366 359 370 368 364 365 359 360 353 351 356 351 347 345 346 346 351 357 353 354 350 349 351 350 353 352 353 352 352 351 351 349 346 346 346 346 348 350 352 352 353 353 352 352 352 352 352 352 351 352 352 351 351 352 352 351 351 351 351 350 351 350 349 349 347 348 347 346 346 344 339 338 338 336 337 335 334 338 337 335 336 341 347 350 349 349 349 349
361 367 380 374 360 358 364 368 369 363 363 371 363 361 364 356 358 352 350 354 347 343 347 349 344 348 354 352 352 348 349 351 351 353 353 353 352 352 351 350 349 347 348 347 348 349 350 352 351 352 352 352 352 352 351 351 351 351 351 351 351 351 352 351 350 350 351 352 351 351 350 349 349 349 349 347 347 347 342 339 340 340 339 338 337 338 340 338 336 335 337 344 347 347 347 347 349
363 372 380 368 361 360 364 369 366 360 364 369 360 362 367 357 354 349 350 351 346 346 347 348 345 346 351 349 349 348 350 350 351 353 353 354 352 352 351 350 349 349 349 348 350 349 350 351 351 352 352 352 352 352 351 350 351 351 350 350 351 351 350 351 351 350 350 352 351 350 350 348 349 350 349 348 348 346 342 342 342 341 339 339 339 339 340 339 336 333 335 341 344 345 346 346 348
366 376 374 361 365 369 366 369 367 363 364 369 365 368 371 360 354 348 350 349 345 348 346 347 348 347 348 347 348 350 351 350 351 353 352 353 352 352 351 350 350 349 349 349 350 349 348 349 350 352 352 352 351 351 351 350 350 350 350 350 351 349 350 351 350 350 350 350 349 348 348 347 349 349 349 347 345 344 343 343 343 341 340 340 341 341 341 339 338 335 334 338 341 343 345 345 347
368 372 373 366 370 370 364 367 368 365 364 370 369 367 367 360 355 351 353 350 347 350 348 351 352 349 348 347 350 351 351 351 352 352 352 353 352 352 352 350 350 349 349 349 350 348 347 348 349 351 351 351 351 351 351 350 349 349 350 350 351 349 350 351 351 351 350 350 349 347 346 346 348 348 347 346 345 345 344 344 345 344 343 344 343 341 340 339 338 337 335 336 340 343 344 344 344
366 367 374 372 371 368 366 370 368 366 365 369 370 365 363 358 353 351 354 350 349 353 351 354 355 350 349 348 350 351 351 352 351 352 352 352 352 352 352 351 350 350 349 349 349 349 348 348 349 351 351 351 351 351 351 350 349 350 350 350 351 350 350 351 351 351 351 351 349 346 346 346 347 346 345 344 344 344 343 343 343 343 342 342 341 339 337 336 336 336 335 337 339 341 341 341 342
364 365 368 366 368 367 367 370 369 368 365 365 366 361 358 356 352 350 352 351 352 352 349 354 354 349 349 349 350 351 351 352 351 352 351 351 351 351 351 351 351 350 349 349 349 349 349 349 349 350 350 350 350 349 350 350 350 350 349 350 351 350 351 351 352 352 351 350 348 347 346 347 346 345 344 342 343 341 341 341 339 338 338 338 338 337 338 337 336 337 338 339 340 341 342 342 342
363 362 364 366 368 367 364 365 368 369 364 363 364 358 353 353 352 350 350 353 354 350 345 349 350 348 349 349 350 350 350 351 352 352 351 351 351 351 351 351 351 350 349 349 349 348 348 349 348 349 350 349 349 348 349 350 350 350 350 350 350 350 351 352 352 352 351 350 348 347 347 346 346 345 344 343 341 339 339 338 337 337 337 338 339 339 340 340 340 341 342 343 343 344 344 345 345
362 360 364 367 366 368 364 361 363 365 368 365 362 360 355 352 352 348 349 353 352 349 346 347 347 347 348 349 350 350 350 351 351 352 351 351 351 351 351 351 351 351 350 349 348 349 348 349 348 349 349 349 348 348 348 349 349 350 349 350 349 349 351 351 352 351 350 350 348 347 347 345 345 344 342 340 338 337 337 337 337 337 338 338 339 340 342 342 343 344 345 346 346 346 346 346 346
361 362 364 365 364 367 361 357 358 359 368 363 359 365 362 358 356 349 349 352 351 349 347 347 347 347 348 349 349 350 350 350 351 351 351 351 351 351 350 351 351 351 351 350 349 349 348 348 348 348 349 348 348 348 348 348 349 350 349 349 349 348 350 350 350 350 350 349 347 347 346 345 345 342 338 337 337 337 336 335 335 336 338 340 341 343 344 345 345 346 346 347 347 348 347 347 346
362 363 365 366 364 364 356 358 365 364 363 359 365 373 363 360 356 350 352 350 347 347 346 346 347 347 348 349 349 350 349 350 351 351 351 351 350 350 350 350 351 351 351 351 350 349 349 348 348 348 348 348 347 347 348 348 348 349 348 348 349 348 348 349 349 350 349 348 348 347 345 344 343 339 336 336 337 337 337 338 339 341 342 344 345 345 346 346 346 346 346 347 347 347 347 348 347
362 364 366 368 365 363 359 359 366 366 359 361 377 376 363 361 352 349 353 348 344 347 347 346 347 348 348 348 348 349 349 349 350 350 351 350 350 350 350 350 351 351 351 351 350 349 349 348 348 348 348 347 347 347 348 348 347 348 348 347 349 348 347 348 349 349 349 348 347 346 345 343 341 338 337 338 339 341 342 343 344 344 345 345 345 345 345 346 346 346 346 346 347 347 348 347 346
362 364 365 365 364 365 363 360 360 362 357 360 378 373 365 365 354 351 352 345 345 347 348 347 348 349 348 348 348 348 348 349 349 350 350 349 350 350 349 350 350 351 351 351 350 349 349 349 348 348 348 347 346 347 347 347 347 347 347 347 348 348 347 348 349 349 348 347 346 345 344 341 339 338 339 341 344 344 344 344 344 345 345 346 346 346 346 346 346 346 346 347 348 348 348 345 345
361 363 365 362 363 365 364 365 362 362 360 357 370 372 366 362 357 359 352 342 346 348 348 348 348 349 348 348 347 347 347 348 349 349 349 348 348 349 349 349 350 351 351 350 350 349 349 349 349 348 348 347 346 347 347 347 346 346 347 347 347 347 347 348 348 348 347 347 346 344 342 340 339 340 343 345 345 344 344 344 345 345 346 346 346 346 346 346 346 346 347 348 348 349 347 344 343
364 365 370 365 367 366 362 369 364 362 365 358 365 369 368 365 358 357 350 342 345 349 349 348 348 348 347 348 347 348 346 347 348 348 348 348 348 349 349 349 350 350 350 350 350 349 349 348 348 348 348 348 347 347 346 346 346 346 347 346 347 347 346 347 347 347 346 345 345 343 340 339 340 343 345 346 344 343 344 345 346 346 347 346 346 346 346 346 346 346 347 348 349 348 347 344 341
368 366 373 372 369 363 358 366 363 362 364 359 360 359 363 368 360 353 347 342 344 348 349 348 348 347 346 346 345 346 345 346 347 347 348 347 348 349 349 349 349 350 350 350 350 349 349 348 347 348 348 348 347 347 346 345 345 346 346 345 347 347 346 346 346 346 345 344 343 341 339 339 342 345 345 344 343 344 346 347 347 347 347 347 347 347 346 346 346 346 347 349 348 347 346 344 341
369 361 368 368 360 358 359 362 363 362 360 358 359 355 359 365 359 354 348 342 342 346 347 346 346 345 344 344 344 345 344 345 346 347 347 347 348 348 349 349 349 350 350 350 350 349 348 348 348 348 348 347 347 347 346 345 345 345 345 345 346 347 346 346 345 344 343 342 340 338 338 341 344 345 344 343 343 346 347 348 348 348 348 348 348 347 345 346 347 346 347 348 348 347 346 344 341
368 353 358 361 353 361 366 360 361 364 363 360 357 356 364 363 357 361 356 345 343 343 343 343 342 342 342 343 343 344 345 345 346 346 347 348 348 349 349 349 350 350 350 350 349 349 348 348 348 348 348 347 347 347 346 345 344 344 345 345 346 346 346 345 344 342 341 340 338 338 340 343 345 344 344 345 345 347 348 349 349 348 348 348 348 347 345 347 349 348 346 347 347 347 346 344 343
367 352 354 358 354 359 364 361 360 361 362 359 357 360 365 362 359 366 364 349 344 344 341 341 341 341 343 344 344 346 348 347 346 347 347 348 348 349 349 349 350 350 349 349 349 349 349 348 348 348 347 347 347 346 346 345 344 344 344 345 345 345 345 345 343 340 339 339 338 340 342 344 344 343 345 348 348 348 349 350 350 349 348 348 348 347 346 348 351 349 347 346 346 347 346 344 342
359 353 353 358 357 358 361 364 360 359 361 360 361 362 361 362 363 364 362 351 344 344 342 342 342 343 345 346 346 347 348 349 348 347 348 349 349 349 349 349 349 350 349 349 349 348 348 348 348 347 347 347 346 345 345 345 344 344 344 344 344 343 343 343 341 338 337 339 341 343 344 345 344 344 347 349 349 349 349 350 351 349 349 348 347 347 346 348 351 350 349 346 346 347 347 344 342
356 356 355 355 357 359 361 363 360 358 363 362 363 362 361 364 363 362 362 352 344 343 344 345 345 346 347 347 347 347 347 348 348 347 348 349 349 349 349 349 349 349 350 349 349 348 347 347 347 347 347 346 346 345 345 345 344 344 344 343 343 342 342 341 338 336 339 343 346 347 347 345 345 346 350 350 349 349 349 350 350 350 349 348 348 347 346 347 349 350 349 347 347 347 347 346 343
361 364 363 358 357 358 361 362 359 358 363 366 364 361 362 364 361 360 362 354 344 344 346 348 349 349 348 347 347 346 347 348 346 347 349 349 349 349 349 350 350 350 350 350 349 348 348 347 348 347 346 345 345 345 345 345 344 344 344 343 343 343 342 340 338 339 345 349 349 349 348 346 347 349 351 351 350 349 349 349 349 350 350 349 350 348 347 348 349 349 348 349 347 346 347 346 344
363 367 364 362 362 361 361 359 358 358 362 366 364 361 362 365 363 358 360 355 345 346 349 351 352 350 347 347 346 347 347 346 345 347 349 350 350 350 350 350 350 350 350 350 349 348 347 347 348 347 345 345 346 346 345 344 344 344 344 343 343 342 341 340 342 345 349 350 350 350 349 348 350 350 351 351 350 348 348 348 348 350 350 350 351 351 349 350 350 349 348 349 348 346 347 346 346
364 366 361 363 362 360 359 358 358 359 361 362 362 363 359 359 360 356 357 357 348 347 349 349 352 350 348 348 347 347 347 346 346 347 349 350 350 350 350 350 350 350 350 349 349 348 347 347 347 346 346 346 346 345 344 343 343 343 343 342 342 342 341 342 345 348 350 350 350 350 349 349 350 351 352 351 351 348 348 348 349 350 350 351 352 352 351 351 351 350 349 349 348 347 348 347 347
368 365 359 360 359 358 357 358 360 359 361 362 361 363 358 356 357 354 357 362 361 359 353 350 351 350 349 349 348 347 348 349 348 348 349 349 350 350 350 350 350 350 350 349 349 348 347 347 347 347 347 346 346 345 343 342 343 342 341 340 341 341 341 343 345 347 349 350 350 350 350 350 350 352 352 351 350 349 348 348 349 351 351 352 353 352 352 352 352 351 350 350 348 347 348 347 347
367 364 358 357 358 358 357 359 360 358 359 360 361 362 359 359 358 354 358 365 368 368 364 360 353 350 350 347 347 347 348 350 349 348 349 348 349 350 349 350 350 350 350 350 349 348 347 347 347 347 347 345 344 343 343 342 342 341 340 340 341 341 340 341 343 346 348 349 350 350 350 349 351 353 352 350 350 349 348 349 350 352 352 352 353 353 352 352 352 351 351 351 349 349 348 347 347
360 361 360 364 363 358 357 361 359 357 357 358 360 358 358 362 361 359 363 364 365 366 365 363 357 351 349 347 347 347 347 348 349 349 349 348 349 350 350 350 350 351 350 350 349 348 346 346 347 347 345 344 344 344 343 343 343 343 343 343 343 342 341 341 343 345 347 348 349 349 349 349 351 352 350 349 350 349 348 349 350 351 352 352 352 352 352 352 352 352 353 351 350 352 350 348 349
353 357 360 366 365 358 358 361 358 355 355 357 358 354 355 363 361 360 365 365 366 367 364 361 360 356 352 350 350 348 346 347 348 349 348 348 349 349 349 349 350 350 350 350 349 347 346 346 347 346 345 344 345 345 345 345 345 344 345 345 345 344 343 343 344 345 346 347 347 347 348 349 350 350 349 348 348 347 347 350 351 351 352 352 352 353 353 353 353 353 354 352 351 354 353 349 349
349 354 359 362 362 358 358 360 357 354 353 356 357 353 352 358 359 359 362 364 366 367 366 363 361 360 357 352 350 348 347 346 347 348 347 347 348 349 349 349 349 350 350 350 349 348 347 346 347 347 346 345 345 346 346 346 345 345 345 345 344 343 343 344 345 345 346 346 346 346 347 349 349 350 350 348 347 346 347 350 352 352 352 352 351 353 354 353 354 354 354 353 351 353 353 350 350
349 353 359 363 363 359 358 360 358 355 354 355 358 355 352 354 358 359 359 362 364 362 364 364 359 359 357 352 350 348 347 346 346 347 347 347 347 348 348 348 349 349 350 349 349 349 348 347 348 348 348 347 346 346 346 346 346 345 345 344 344 343 343 344 344 345 345 345 345 345 347 348 349 350 350 349 348 346 347 351 353 352 352 352 352 352 354 354 353 354 354 354 353 353 351 350 351
352 353 357 360 359 357 358 360 357 355 353 353 356 355 351 353 358 361 359 358 359 359 359 360 358 357 355 353 351 347 346 346 346 346 346 346 347 348 348 348 349 349 349 349 349 349 348 348 348 348 348 347 347 347 346 346 346 346 346 345 344 344 344 344 344 344 344 344 345 344 346 349 349 351 351 350 349 347 347 351 353 352 352 352 352 352 353 353 353 352 354 354 355 354 351 350 351
354 351 354 354 354 357 360 362 358 356 354 352 353 353 350 352 358 359 358 355 355 356 354 354 355 355 354 353 352 349 347 346 345 345 344 344 346 347 347 347 348 348 348 348 349 349 348 348 348 348 348 347 347 347 347 347 346 346 346 346 346 346 346 346 345 345 345 344 344 345 347 349 350 351 351 350 349 349 350 352 352 352 352 352 352 353 353 353 353 353 353 354 355 353 350 350 351
352 353 354 351 357 361 361 362 355 350 353 351 350 353 350 350 358 360 357 356 356 353 352 352 353 355 354 353 352 350 347 346 345 345 344 343 345 346 346 347 347 347 347 348 348 349 349 348 348 348 348 348 347 347 347 347 347 347 347 347 348 347 347 347 346 346 346 345 345 346 348 349 350 351 352 351 350 351 351 352 352 352 352 351 351 352 353 353 353 353 353 354 355 353 349 349 350
355 361 355 349 355 355 353 357 353 348 351 350 349 354 351 348 358 367 364 361 360 355 352 351 351 354 355 353 353 350 347 345 345 345 344 343 344 344 345 345 346 346 346 347 347 348 349 348 348 348 348 348 348 347 347 347 347 347 347 348 348 348 346 346 347 347 347 347 347 348 349 350 350 350 352 352 351 352 352 352 352 352 352 351 350 351 353 353 352 353 353 353 354 352 350 350 351
355 356 352 349 350 350 352 353 352 350 347 346 352 355 352 349 355 365 364 360 361 358 356 354 349 350 355 355 354 352 348 345 345 345 345 344 344 343 344 345 345 346 346 347 348 348 348 348 348 348 348 348 348 348 348 347 347 347 347 348 347 347 347 346 347 347 347 347 348 349 349 350 350 351 352 352 350 351 352 352 352 352 352 351 348 350 353 353 352 353 353 352 352 352 352 352 351
353 349 346 348 351 352 357 353 346 347 346 347 354 354 351 349 350 357 360 357 361 361 360 360 355 350 354 355 353 351 350 347 346 346 345 345 344 343 344 344 344 346 346 346 347 348 348 348 349 348 348 348 348 348 348 347 347 347 347 348 348 347 347 346 346 346 346 347 347 348 349 349 349 350 351 351 350 351 351 352 351 352 353 352 350 349 351 353 353 353 353 353 353 353 353 353 352
350 349 343 345 351 350 349 348 344 345 349 350 350 351 352 349 348 355 360 359 362 363 361 363 361 356 355 354 353 352 350 349 347 347 346 344 343 343 344 344 344 345 346 347 347 348 349 349 348 349 348 348 348 348 348 348 347 347 347 347 348 347 347 346 346 345 346 346 347 349 349 349 349 350 350 350 350 351 351 351 351 351 352 353 353 351 350 352 353 353 353 353 353 353 353 353 353
342 340 339 338 346 348 337 338 348 349 350 353 350 350 356 355 351 356 360 361 363 363 362 363 362 360 357 356 354 353 351 349 347 348 348 345 343 343 343 343 344 344 345 346 346 347 349 349 348 349 348 348 348 347 346 346 346 347 347 348 348 348 346 346 346 346 346 346 348 350 349 349 349 349 349 349 350 350 351 351 351 351 352 352 352 352 350 351 351 352 354 354 353 354 354 353 353
341 336 340 336 340 354 341 333 347 346 341 347 347 349 357 353 348 357 362 363 364 365 364 364 363 361 360 358 354 352 352 350 347 347 348 346 343 343 344 343 343 344 345 346 346 347 348 349 348 349 349 348 348 347 345 345 346 346 348 348 348 348 347 347 346 345 346 347 349 349 348 348 348 349 349 349 350 350 350 351 351 351 352 352 352 352 351 351 351 352 353 353 354 354 355 355 354
340 336 341 333 328 344 342 335 345 343 337 345 347 350 354 346 345 359 366 364 365 367 365 364 363 361 360 358 354 353 353 351 349 347 347 345 343 343 344 344 343 344 345 345 346 347 347 348 348 348 348 348 348 347 345 344 346 347 348 349 349 348 348 348 347 347 347 349 349 347 347 348 348 349 349 349 350 350 350 351 351 352 352 351 351 352 352 352 352 352 352 353 354 354 355 356 355
332 334 334 325 321 327 328 330 341 341 339 346 348 349 350 347 352 364 368 368 368 367 366 365 363 361 359 357 355 356 354 353 352 349 347 345 343 343 344 344 344 344 344 345 346 346 347 347 348 348 348 348 348 348 347 345 345 347 348 349 348 348 349 348 349 349 348 349 348 347 347 347 348 349 349 349 349 349 350 350 351 352 352 352 351 352 352 353 352 353 353 353 353 354 356 356 356
326 331 330 330 331 330 327 328 333 337 340 344 343 343 348 353 360 367 369 367 364 365 368 367 363 362 359 356 356 357 354 354 354 351 349 346 343 343 344 344 345 345 344 345 345 346 347 347 347 348 347 348 348 348 348 346 345 346 348 348 348 348 348 348 348 349 348 348 348 347 347 347 348 348 349 349 350 350 350 349 351 352 352 352 352 352 352 352 352 352 352 352 353 355 356 356 357
327 331 328 329 332 328 327 329 328 334 342 345 341 339 349 360 361 363 365 359 357 363 365 361 359 359 359 357 357 356 354 354 354 353 354 351 344 343 344 344 344 345 344 345 345 345 346 347 347 348 348 348 348 348 348 347 347 347 348 348 348 348 347 347 347 347 348 348 347 347 348 348 348 348 349 349 350 351 351 351 351 352 353 353 353 352 352 352 352 352 352 353 353 354 356 356 357
335 337 329 330 331 327 329 329 329 335 341 344 342 339 350 360 354 356 358 352 355 360 358 357 357 357 357 359 357 355 355 355 353 354 356 355 350 345 345 345 344 345 345 344 345 345 346 347 347 348 348 348 348 348 348 348 347 347 347 347 347 347 347 347 347 347 347 347 347 347 347 349 349 349 349 350 351 352 352 352 353 353 353 353 353 352 352 352 352 351 352 353 353 354 355 355 356
Wind_Speed
12 11 9 7 6 5 2 1 1 2 3 2 2 1 1 1 2 2 2 1 2 2 2 5 7 4 2 4 6 5 2 3 4 4 2 3 12 19 15 17 18 15 15 13 12 12 12 13 12 11 11 11 10 9 9 8 7 7 7 8 7 9 11 10 11 13 12 13 14 13 12 13 13 13 14 14 14 13 13 13 12 12 12 13 12 13 13 13 13 14 13 12 11 11 11 10 11
11 10 8 6 3 2 0 1 2 2 4 3 2 1 2 2 1 1 3 3 2 3 3 6 7 5 4 6 7 4 3 3 2 4 2 9 16 14 15 18 17 16 16 14 13 12 12 13 12 11 11 10 9 9 9 8 7 7 7 8 7 8 11 11 10 11 11 13 13 12 12 13 13 13 14 13 13 13 12 12 12 12 12 12 12 12 14 14 13 13 13 12 11 11 11 10 11
10 9 8 6 1 1 1 2 2 2 4 3 1 2 1 1 1 3 4 4 3 5 7 6 6 4 3 4 3 2 1 3 3 3 5 14 13 12 19 18 17 16 15 14 13 12 12 13 12 11 11 10 9 9 8 8 8 7 8 8 8 8 10 12 11 10 11 12 12 11 12 13 12 12 12 13 13 13 12 11 12 12 12 12 12 12 14 14 13 13 11 11 10 10 10 10 11
7 6 6 4 1 2 2 2 2 3 3 2 1 3 1 2 4 2 2 2 1 5 7 6 4 1 3 4 1 2 2 2 3 3 6 12 10 16 21 18 18 16 16 15 13 13 12 12 12 11 11 10 9 9 8 7 7 7 8 8 8 8 9 10 11 10 10 11 11 11 11 12 12 11 11 13 13 12 11 11 11 12 12 12 11 12 13 13 13 12 11 10 10 10 10 10 10
4 5 6 3 1 0 1 2 1 3 2 3 2 3 2 2 3 2 2 2 2 3 5 4 2 1 3 3 1 2 2 3 3 4 8 10 13 20 21 19 19 17 16 15 14 14 12 12 12 11 10 10 9 9 8 8 8 8 8 9 8 8 9 10 11 10 10 10 10 11 11 12 12 11 10 12 12 11 11 11 11 12 12 11 11 12 12 12 12 12 10 10 10 10 9 9 10
4 4 4 2 1 1 2 3 2 3 1 3 2 3 3 3 3 5 4 4 5 5 4 3 4 4 3 2 2 2 4 5 5 6 11 14 18 22 20 20 19 17 16 15 15 14 13 12 11 11 10 10 9 9 9 9 10 10 9 9 9 9 9 11 11 9 9 10 10 10 10 12 12 10 10 11 11 10 11 10 10 11 12 10 10 10 11 11 10 10 10 10 10 10 9 9 10
4 2 1 1 0 1 3 3 2 1 1 3 2 2 3 2 3 6 5 4 6 6 4 4 5 6 2 0 2 1 5 8 7 9 14 18 21 22 21 20 19 18 16 15 16 14 14 12 11 11 10 10 9 9 9 10 9 10 10 9 10 9 9 10 10 9 9 10 10 9 10 11 11 10 10 10 10 10 10 11 10 11 11 9 9 9 10 10 10 10 10 10 10 9 8 9 9
2 1 1 2 1 2 3 3 1 1 1 1 2 1 1 2 3 3 4 3 3 3 4 4 3 5 2 1 2 2 6 10 10 13 18 22 22 22 21 20 18 18 16 16 16 15 14 12 11 10 11 11 10 10 10 10 9 9 9 10 11 9 9 10 9 9 9 10 10 9 9 10 11 10 9 9 9 9 10 10 10 12 11 8 8 8 8 9 9 10 9 9 9 8 8 8 8
0 1 0 2 2 3 3 2 1 1 2 2 1 1 1 1 2 2 5 4 4 4 3 3 2 4 2 4 3 1 7 12 14 17 20 22 22 21 20 19 18 18 17 17 16 15 13 11 11 10 10 11 10 10 10 10 10 9 9 10 11 10 10 10 9 9 9 10 10 9 9 10 10 9 8 9 9 10 11 10 11 11 10 9 7 7 8 8 8 9 9 9 9 9 8 8 8
1 1 1 2 3 4 3 2 1 1 2 2 2 1 2 1 2 3 4 5 4 4 3 3 5 6 4 4 2 1 8 17 19 18 19 21 21 20 19 18 17 19 19 17 16 14 13 11 10 10 10 10 10 10 10 11 10 9 9 9 11 11 11 11 9 9 9 9 9 8 9 10 10 9 8 8 9 10 10 10 11 10 10 9 7 7 8 8 8 8 8 8 9 9 9 8 8
1 1 1 3 3 3 2 1 1 3 4 2 1 2 2 1 5 4 4 6 4 5 4 5 7 6 5 3 1 4 13 19 20 19 19 19 19 19 18 17 16 18 18 17 16 14 12 10 9 9 9 9 10 10 10 10 10 9 9 9 10 11 11 10 9 8 8 8 8 8 9 10 9 8 8 8 9 9 9 9 10 9 9 8 7 7 8 8 8 8 8 8 8 8 9 8 8
0 2 2 3 2 2 3 2 1 3 4 2 1 1 1 2 6 4 5 6 4 5 2 2 5 4 4 2 1 8 14 15 18 20 19 19 18 18 17 15 15 15 17 17 15 13 12 10 9 8 8 9 10 10 10 9 9 9 9 9 10 11 10 9 8 7 7 7 7 8 8 8 9 8 8 8 8 8 8 9 9 8 8 7 8 8 7 7 7 8 7 7 8 8 9 9 8
1 1 2 3 1 2 2 3 1 3 3 1 2 2 1 3 4 6 6 6 5 5 1 3 7 4 4 1 2 6 9 13 17 19 19 18 17 17 16 14 13 14 15 16 15 13 12 11 9 7 7 9 9 11 10 9 9 9 9 9 10 11 10 8 8 7 6 6 6 7 7 8 8 7 7 7 7 7 7 8 7 8 7 7 7 7 7 6 7 7 7 7 7 8 8 8 8
1 1 2 2 1 2 2 2 1 1 0 2 2 2 1 1 3 4 6 7 3 3 3 4 7 6 3 2 3 4 7 15 18 18 18 18 17 16 15 14 13 14 14 15 15 14 12 11 9 7 7 8 9 9 10 9 8 8 8 9 10 10 10 9 8 7 6 5 6 6 6 7 7 7 7 6 6 7 7 7 7 7 7 6 6 7 8 7 6 6 7 7 7 7 7 8 7
1 0 3 3 1 1 1 1 2 3 2 2 2 0 2 1 5 4 3 6 2 2 6 5 3 3 3 5 4 5 11 19 19 18 18 17 17 16 15 14 13 14 14 15 15 14 13 11 10 8 7 9 9 8 9 10 9 8 8 8 9 10 9 9 8 8 6 4 5 5 5 6 7 7 6 6 6 6 6 7 7 6 6 6 6 6 7 6 6 6 7 7 6 6 7 7 7
1 1 3 3 1 1 1 1 2 3 3 3 1 1 3 2 4 4 2 4 5 4 4 2 2 1 5 5 5 11 18 22 19 18 19 17 16 15 15 13 13 14 14 15 15 14 13 11 11 9 7 9 9 8 8 9 9 8 9 9 8 9 10 9 8 8 7 4 3 4 5 6 7 7 7 6 6 5 5 6 6 6 5 5 5 5 6 6 5 5 7 7 6 7 6 5 6
1 2 3 2 1 2 2 2 3 3 2 3 1 1 4 3 3 3 1 5 7 5 2 1 1 2 6 6 11 20 22 22 20 19 19 18 17 15 14 13 14 14 14 14 14 13 12 11 12 10 8 9 9 9 8 8 9 9 9 9 8 9 10 10 9 9 8 6 4 4 5 6 7 6 6 6 5 4 5 6 5 5 5 5 5 5 5 5 5 5 6 6 6 6 6 5 4
2 2 3 2 2 2 3 4 4 1 1 3 2 2 5 3 3 3 4 5 5 4 3 3 6 6 9 14 20 23 22 22 20 20 18 17 16 14 13 14 14 14 14 14 13 13 12 12 12 11 10 10 10 9 9 9 9 10 10 10 9 8 9 10 10 10 9 8 6 5 5 5 6 6 5 5 4 4 5 5 5 5 5 5 5 4 4 5 4 5 5 6 6 6 6 5 4
2 1 2 1 3 2 3 4 3 1 1 2 2 4 4 3 6 4 4 4 4 5 3 4 8 7 10 16 21 21 21 21 19 18 16 15 15 14 13 14 14 14 14 14 14 13 13 12 11 11 10 11 11 10 10 10 10 10 11 11 9 8 8 10 11 10 10 9 7 6 5 5 5 5 4 4 4 3 4 4 5 4 4 4 4 3 3 4 4 4 5 5 6 5 6 6 6
1 2 2 2 3 1 1 1 2 2 1 2 2 4 3 3 6 4 6 7 4 4 4 5 7 7 9 12 16 19 19 18 17 16 14 14 14 14 14 14 14 15 15 15 15 14 13 12 11 11 10 11 12 10 10 10 10 9 10 12 10 9 9 10 11 11 10 8 7 6 5 5 5 5 4 4 4 3 3 3 4 4 4 4 4 4 4 4 4 4 5 5 5 5 5 5 6
1 2 1 2 0 1 3 2 1 2 2 2 1 4 4 3 4 5 9 7 2 5 7 7 11 12 12 11 13 16 16 15 14 13 13 13 13 13 13 13 13 15 15 14 15 14 14 13 12 12 11 11 11 11 10 10 11 10 9 10 10 10 10 11 11 10 9 8 7 6 5 4 4 4 4 4 3 2 2 3 3 4 4 4 4 5 5 4 4 4 4 4 4 4 5 6 6
1 1 1 1 1 1 3 4 2 0 3 2 3 4 3 2 3 7 12 9 5 7 7 8 13 15 14 13 13 14 13 12 12 12 13 12 12 12 12 12 13 14 15 15 15 14 14 14 13 12 11 11 12 12 11 11 12 11 10 10 11 12 12 12 11 10 10 8 7 6 5 4 3 3 3 3 3 3 3 3 4 5 4 4 4 4 4 3 2 2 2 3 4 6 7 7 7
2 2 1 3 3 1 4 4 5 2 5 3 1 1 1 4 3 7 11 7 4 4 7 8 11 14 16 15 13 12 11 11 12 14 14 14 14 13 14 14 14 15 15 16 15 14 13 13 13 12 12 12 12 12 12 12 12 12 12 11 12 12 12 12 11 11 10 8 8 6 5 4 3 2 2 3 3 4 4 4 4 4 3 2 1 1 1 2 3 5 6 6 7 7 7 6 7
3 1 1 3 4 3 4 4 6 5 6 2 2 1 0 6 4 5 6 3 0 6 10 9 11 14 16 13 11 12 12 12 13 15 16 15 15 14 15 16 15 16 16 16 14 13 14 12 12 13 12 12 13 12 12 13 13 13 13 12 12 11 11 11 12 11 10 9 8 7 6 4 3 2 2 3 4 5 5 4 4 3 1 2 3 5 6 7 8 8 9 8 7 6 4 4 5
2 0 1 2 3 3 3 2 4 4 4 3 0 3 1 5 4 5 4 3 4 9 11 11 11 13 12 11 11 10 10 11 12 13 14 13 12 12 14 15 15 16 17 16 13 13 14 12 12 13 12 12 13 12 13 14 14 14 13 13 12 10 10 11 11 11 10 9 8 7 6 4 3 2 2 3 4 5 4 3 2 1 2 4 7 8 10 10 9 9 9 8 7 7 6 5 3
2 2 1 3 2 3 3 2 3 3 4 5 4 5 3 0 2 3 1 3 8 10 12 11 12 11 10 10 10 10 9 10 12 12 13 12 12 13 14 15 15 17 17 16 14 13 14 13 13 14 13 12 12 12 13 14 14 14 14 14 12 10 11 11 11 10 9 9 8 7 6 4 3 2 2 2 3 3 2 1 2 3 5 7 9 10 10 10 9 10 10 9 9 8 8 6 3
3 4 4 5 2 2 3 2 3 3 4 5 5 4 6 5 1 2 1 5 10 11 11 11 12 11 10 10 9 9 10 11 14 13 12 12 13 15 14 15 16 16 16 16 15 14 14 13 13 14 14 12 12 12 14 14 14 14 14 15 14 11 12 11 10 10 9 8 7 6 5 4 3 3 2 2 3 3 3 4 5 6 7 8 9 9 10 10 10 12 11 10 10 10 10 9 4
5 5 5 5 3 3 5 3 3 3 2 4 4 4 7 7 3 4 5 7 11 13 12 11 11 10 10 10 8 8 9 12 14 13 13 14 15 17 17 17 17 16 16 17 16 15 13 14 14 14 14 12 11 12 14 14 14 14 14 15 15 13 12 11 10 9 8 7 7 6 5 5 5 3 2 3 3 4 5 6 6 7 8 8 8 9 10 11 11 12 11 9 10 10 12 11 7
3 4 4 3 3 4 5 3 3 3 1 5 3 4 4 4 5 6 7 9 11 12 12 11 10 9 8 8 7 6 8 12 14 14 15 16 16 18 18 18 18 17 17 16 16 15 14 14 14 14 14 13 12 13 13 14 14 14 14 15 15 13 12 12 11 9 7 7 6 6 6 6 5 3 2 2 3 4 6 7 7 8 8 8 8 9 10 10 10 10 9 9 10 10 12 12 9
1 2 3 2 4 3 4 3 3 3 1 5 3 1 3 4 6 4 7 9 11 10 10 10 9 8 8 7 7 7 9 12 14 16 17 16 17 18 18 18 18 18 17 16 16 15 14 14 14 13 14 14 12 12 13 14 14 14 14 15 15 14 12 12 11 9 8 7 7 7 7 6 4 2 1 1 2 3 5 7 8 8 8 7 8 9 9 10 10 10 8 8 9 10 12 12 9
1 2 2 2 1 2 5 4 3 3 1 3 1 2 4 4 5 2 5 8 13 11 10 10 8 7 7 7 8 7 8 12 15 16 17 17 17 18 17 17 18 17 17 17 16 15 14 14 14 13 14 14 13 12 13 14 14 14 14 14 15 14 12 12 11 10 8 8 8 8 7 6 3 2 1 0 1 2 4 6 8 7 7 7 8 9 9 9 9 9 9 8 9 10 11 11 10
2 1 2 2 1 2 5 4 3 2 1 2 1 2 3 4 6 5 3 6 10 11 10 9 8 8 7 7 7 7 6 9 12 14 16 17 18 18 18 18 18 18 18 18 17 15 14 15 14 14 14 13 13 12 13 14 14 15 14 14 15 14 13 12 11 10 9 9 9 8 7 5 4 3 2 1 0 2 4 6 6 6 6 7 8 9 9 8 8 9 9 9 10 11 12 11 10
3 1 2 1 1 1 3 3 1 2 1 1 1 2 1 3 5 6 2 6 8 8 9 8 8 8 7 6 6 6 5 5 8 12 16 17 18 19 19 19 19 18 18 18 17 16 15 15 15 14 14 13 13 12 13 14 15 15 14 14 14 13 13 12 12 11 11 10 10 9 7 6 5 4 4 2 0 2 4 5 5 6 7 9 10 10 9 8 8 8 8 9 9 11 12 11 10
3 2 1 2 2 1 1 2 1 3 2 2 1 3 3 4 3 5 2 7 8 7 8 8 7 7 6 6 6 6 6 6 7 11 17 18 18 19 19 20 19 18 18 18 17 16 15 16 15 14 13 13 13 13 13 14 14 13 13 13 13 14 13 13 12 12 12 11 11 9 8 7 6 5 4 3 2 3 4 5 6 7 8 10 11 10 9 8 8 8 8 8 8 9 11 11 9
3 2 1 2 1 2 2 2 1 1 1 2 2 2 4 5 4 5 2 7 9 8 8 7 7 6 6 6 6 6 7 7 9 13 19 19 19 19 18 19 19 19 18 18 18 16 15 16 16 14 13 14 14 13 13 13 13 13 13 13 13 14 14 13 13 13 13 12 11 9 9 8 7 6 4 3 3 5 5 6 7 8 10 11 11 10 9 8 8 8 8 8 8 7 9 10 8
5 4 3 2 1 2 2 1 1 1 1 2 3 2 2 4 3 5 4 4 9 8 7 6 5 5 5 6 6 7 8 8 10 15 19 19 20 19 18 19 19 19 19 18 18 17 16 17 16 14 14 14 14 14 13 14 14 14 14 14 14 15 15 15 14 14 14 13 11 10 9 8 7 5 4 3 5 6 7 7 8 8 10 10 9 9 8 9 9 9 9 9 9 8 8 9 8
5 4 3 3 1 1 1 1 0 1 0 1 2 1 2 3 3 5 6 3 9 8 7 6 5 5 6 6 6 7 7 6 9 15 17 18 19 19 18 18 19 19 19 19 19 18 17 18 17 15 14 15 15 15 16 16 16 16 16 16 16 16 16 16 15 15 15 13 11 10 9 8 7 5 5 6 7 8 8 8 8 9 10 10 9 8 8 8 9 10 10 10 10 10 8 9 9
4 4 3 3 1 1 1 1 1 1 1 1 1 1 1 2 4 6 7 2 8 9 8 8 7 6 6 7 7 7 5 4 8 11 14 16 18 19 19 19 20 20 20 21 20 18 17 18 17 16 15 15 15 16 17 18 18 18 18 18 17 17 17 17 16 16 15 13 12 11 10 8 7 7 7 8 9 9 8 8 8 9 9 9 9 8 7 8 9 10 9 9 10 9 8 9 10
4 3 3 2 1 1 1 1 1 1 1 1 2 2 1 1 5 8 7 3 4 4 7 8 8 7 6 7 7 6 5 5 7 8 12 16 18 19 20 20 21 21 21 22 20 19 18 18 17 16 16 16 15 16 17 18 18 18 18 17 17 16 16 17 16 16 15 14 13 12 11 9 8 9 9 9 9 9 8 8 8 8 8 8 8 7 7 7 8 9 8 8 9 8 7 8 9
3 3 3 2 3 2 0 1 2 2 1 1 2 2 2 1 5 7 7 4 3 2 3 4 6 8 8 8 8 8 8 7 8 8 10 14 17 19 20 20 21 20 21 22 21 20 19 18 18 17 16 16 16 17 17 17 16 16 16 15 15 15 15 15 16 15 15 15 14 13 12 11 10 10 10 10 9 8 8 8 8 7 7 7 7 7 7 6 7 7 6 6 7 7 6 7 8
2 4 4 3 5 4 1 1 2 2 1 2 3 2 3 2 4 5 5 2 3 3 1 3 4 5 4 6 7 9 9 9 10 9 9 12 16 18 20 21 21 21 22 23 23 22 20 19 19 18 17 16 16 16 16 16 16 16 15 14 13 14 14 14 15 16 16 16 15 14 13 12 11 10 11 11 10 9 8 8 8 7 7 7 7 7 6 6 5 5 5 4 5 6 5 6 6
2 4 7 5 7 7 5 5 3 1 1 0 2 1 3 3 5 7 3 2 3 3 0 4 5 4 3 5 7 7 8 9 10 11 11 13 16 17 19 20 21 22 24 25 25 24 21 20 20 19 18 17 16 16 15 16 16 16 17 16 14 15 15 14 16 18 17 17 15 14 13 12 11 11 11 11 11 10 9 8 8 7 7 7 7 7 6 5 4 4 4 3 4 5 5 4 3
1 5 7 8 9 10 8 6 3 1 2 2 1 2 2 3 4 7 3 2 5 4 3 4 4 5 5 5 7 7 7 8 8 9 10 12 16 17 18 21 23 24 25 25 24 24 23 21 21 20 19 18 18 17 16 16 17 17 17 18 16 16 17 17 17 18 17 16 15 13 12 11 11 11 11 10 11 11 10 9 8 8 8 8 7 7 6 5 4 3 3 3 4 5 5 4 2
3 4 8 12 10 10 8 5 2 2 2 1 0 2 1 3 4 6 6 5 6 5 6 5 4 5 6 6 7 7 9 9 8 8 9 12 17 19 20 23 25 25 25 25 24 24 24 22 22 20 19 19 19 18 18 18 18 17 17 17 17 17 18 18 17 16 16 16 15 14 13 12 12 12 11 10 10 10 10 9 8 8 8 8 8 7 6 5 4 3 3 3 4 4 5 4 2
2 3 10 10 10 9 7 4 2 1 2 1 2 1 0 3 4 1 5 6 8 8 8 7 6 6 7 8 7 7 8 9 10 10 11 13 17 21 23 24 25 24 25 26 27 26 25 23 23 21 20 20 19 19 19 18 18 17 16 16 16 17 17 17 16 16 16 16 16 15 14 13 12 12 11 10 10 10 10 9 8 8 8 8 8 7 6 6 5 5 4 4 4 5 5 4 2
3 10 12 9 9 7 5 4 2 1 3 0 4 3 1 3 4 1 3 6 10 10 8 7 7 7 7 8 8 7 7 8 9 10 12 16 20 23 24 23 23 24 25 27 27 27 26 25 24 23 22 21 20 19 19 19 18 18 18 17 17 17 18 18 18 18 17 16 16 16 15 15 13 12 11 10 10 10 9 9 9 9 9 9 8 8 7 6 6 6 5 4 5 6 5 4 3
9 11 11 8 6 5 4 2 1 3 2 3 4 5 3 2 4 2 3 5 6 7 6 7 7 6 6 7 7 7 7 7 8 9 11 16 19 20 21 21 22 23 23 24 25 27 27 27 26 25 24 22 21 21 20 19 19 20 20 18 17 17 18 18 18 17 16 16 16 16 16 15 14 12 11 10 11 10 10 10 9 9 9 10 10 9 8 8 7 6 5 5 5 6 6 5 5
7 5 6 5 4 3 3 3 3 3 2 5 3 3 4 1 4 4 4 4 3 5 7 9 10 9 7 6 6 7 7 8 8 8 9 10 12 15 18 20 21 21 22 23 25 26 28 29 28 27 26 24 23 22 21 21 20 21 20 18 16 16 17 18 18 17 16 16 16 16 15 15 14 12 12 12 12 12 11 11 10 10 10 11 11 11 10 9 8 7 6 6 6 6 5 6 6
5 5 5 5 3 3 2 2 2 1 3 3 0 3 2 4 6 5 6 6 5 5 5 7 9 10 8 7 6 6 6 8 8 8 8 8 9 13 18 20 21 22 23 25 26 26 28 29 29 29 28 26 24 23 23 22 22 21 21 19 17 16 18 19 19 18 16 15 15 15 15 14 14 13 13 13 13 12 12 12 11 11 11 10 11 11 11 10 9 8 7 7 7 6 6 6 6
5 5 4 4 3 2 0 2 1 2 4 3 1 2 1 4 5 4 5 5 5 4 4 5 6 8 8 7 6 5 5 8 8 8 8 8 10 15 19 20 22 23 25 26 26 27 28 29 30 30 29 27 26 25 25 25 24 23 22 20 18 17 19 20 20 19 18 16 14 14 14 14 14 14 14 13 13 13 13 12 12 11 11 10 10 11 11 10 10 9 8 8 8 7 7 7 7
3 2 4 4 4 4 3 3 2 2 2 2 1 1 2 2 3 3 4 4 3 2 1 2 3 4 6 7 6 5 5 6 7 8 9 10 13 17 19 20 22 24 25 26 26 27 28 28 30 31 30 29 27 26 27 27 27 25 23 21 18 17 18 20 20 21 19 17 15 14 14 14 15 14 13 13 13 13 13 12 12 11 11 10 10 10 11 11 11 10 9 9 9 8 8 9 8
1 1 4 1 3 4 3 2 4 3 1 0 0 2 3 4 3 3 2 2 3 3 3 1 2 1 2 4 6 6 5 5 7 8 9 10 15 18 19 20 22 23 24 25 26 27 28 29 30 31 31 30 28 27 27 28 28 26 24 21 18 17 18 19 20 20 19 17 15 14 13 13 13 13 12 12 12 13 13 13 12 12 11 11 10 10 11 12 12 12 11 10 10 9 10 10 9
1 1 2 4 3 6 5 1 1 3 2 1 1 3 4 3 3 3 1 2 2 2 3 2 2 1 1 3 4 5 5 5 6 8 9 10 14 18 20 21 22 22 23 25 27 29 30 30 30 31 31 31 30 28 28 29 29 27 24 21 19 19 18 18 17 19 19 16 14 13 13 12 12 11 12 12 12 12 12 12 13 13 13 12 11 11 12 12 13 13 12 13 12 11 11 12 11
5 2 5 4 1 4 4 2 3 3 1 2 1 3 4 2 2 4 3 2 3 3 2 2 2 2 3 3 4 5 6 5 5 7 9 10 13 17 20 22 23 25 25 27 29 29 29 30 30 31 31 31 31 29 29 30 30 28 25 23 22 21 19 17 16 17 17 15 13 12 12 12 12 11 11 12 12 12 13 13 13 14 14 13 13 13 13 13 14 15 15 15 14 13 13 14 13
5 4 4 3 2 0 1 2 1 1 1 3 3 3 3 3 3 3 2 3 5 4 3 3 3 3 3 3 4 5 5 5 5 6 7 8 12 17 20 22 24 25 26 27 28 28 27 28 29 29 30 31 31 29 30 31 31 30 27 25 24 22 20 18 17 16 16 15 14 12 12 13 13 13 12 12 13 14 14 14 14 14 14 14 14 14 15 15 16 16 17 17 15 15 15 15 14
3 2 2 2 2 3 2 2 2 2 2 2 3 3 3 5 5 3 5 5 4 4 3 2 3 2 2 2 3 4 5 5 5 5 5 6 10 16 20 23 25 26 27 27 26 26 27 28 28 28 29 29 28 29 29 31 32 31 29 27 25 24 22 21 19 18 17 16 15 13 12 12 14 14 14 13 13 14 15 15 15 15 14 14 15 16 16 17 17 17 17 17 16 15 16 16 15
2 2 1 1 1 2 2 1 1 3 3 3 1 1 5 5 3 4 5 5 3 4 3 1 3 3 3 2 1 2 4 4 5 4 3 4 8 13 15 19 24 25 25 26 26 27 27 27 27 28 28 27 28 29 29 30 31 30 30 29 27 26 25 23 21 20 20 18 17 15 13 12 13 14 15 15 15 15 15 16 17 17 17 17 17 18 18 18 19 18 18 17 17 17 17 17 16
4 3 3 3 2 3 3 1 2 1 3 3 4 2 6 5 1 2 4 3 1 2 2 1 1 3 4 4 2 1 3 3 3 3 2 2 6 11 12 14 18 22 24 25 27 28 27 27 28 29 28 28 29 30 30 30 29 29 30 30 29 28 26 25 24 23 23 22 20 17 15 14 14 15 15 16 16 16 16 17 18 19 19 19 19 19 19 19 19 19 19 19 18 18 19 18 17
Wind_Direction
140 146 150 150 143 141 117 49 58 359 77 64 338 55 306 274 135 114 85 133 121 187 200 137 140 130 121 136 151 155 113 146 161 135 198 210 150 156 158 153 151 144 140 136 138 135 131 129 126 131 132 131 134 131 127 123 119 118 121 121 116 112 112 118 117 113 120 120 114 112 112 112 110 109 105 100 99 97 94 91 89 86 82 81 82 86 92 97 102 102 100 101 102 99 98 97 94
148 151 150 149 143 129 108 64 79 4 59 58 339 102 287 331 78 146 168 190 192 170 132 129 128 80 64 117 129 109 51 24 117 136 128 142 146 157 157 154 151 146 144 139 139 134 129 129 130 136 134 136 135 130 128 126 127 124 122 119 115 110 112 116 116 118 121 116 114 114 113 113 111 106 101 101 100 98 94 91 88 85 80 77 81 90 94 95 98 101 102 100 99 100 100 99 96
150 157 153 152 136 75 98 49 88 63 73 83 334 272 291 53 232 233 209 218 217 137 114 121 114 83 69 88 87 82 87 19 87 112 124 146 151 160 159 156 152 149 146 142 141 136 134 133 135 137 134 137 132 128 128 129 131 127 126 120 113 109 116 121 118 120 119 116 115 112 113 112 108 102 102 104 101 98 94 90 87 83 81 74 75 85 90 90 95 98 98 100 101 101 102 102 99
151 177 176 159 53 37 70 52 116 105 103 129 101 281 280 178 218 256 243 225 168 119 116 130 112 37 97 94 61 80 101 62 110 121 139 162 168 159 159 156 152 150 146 145 144 141 139 138 139 137 136 136 131 129 125 129 134 131 134 125 115 115 122 124 121 120 119 118 116 115 113 107 103 102 105 103 100 101 98 91 88 85 83 79 71 75 88 94 97 96 95 100 102 99 99 102 102
159 185 196 173 68 351 89 68 102 85 118 165 126 290 317 160 175 112 87 63 50 98 118 128 94 13 91 94 77 111 114 98 134 140 138 166 167 157 158 157 154 150 148 148 148 146 142 143 141 138 136 135 133 129 123 126 133 136 138 129 120 124 130 128 123 121 120 119 119 117 110 103 103 107 106 102 104 108 105 98 95 92 86 84 78 74 85 93 93 94 93 95 97 96 95 97 103
167 157 186 183 95 179 97 64 76 55 174 169 117 294 339 68 130 128 107 70 50 62 87 89 106 102 78 46 45 129 159 128 144 153 145 158 161 158 158 158 156 151 150 150 150 149 145 146 145 141 138 135 133 128 124 123 128 135 136 129 122 124 131 129 123 122 120 120 121 116 108 104 103 107 105 103 108 109 107 102 97 96 90 87 88 80 84 90 91 94 93 91 91 90 86 88 96
182 155 144 99 7 89 81 85 107 39 218 167 142 286 332 55 142 137 114 86 60 46 55 81 118 107 73 65 52 79 145 137 145 160 157 155 157 158 159 161 159 153 152 153 153 150 147 149 148 144 141 136 134 132 127 125 130 133 133 130 124 122 126 126 124 124 122 121 122 116 108 103 101 104 105 106 109 108 106 102 99 98 93 93 96 91 87 92 94 92 88 86 88 87 85 85 87
197 169 59 84 35 32 83 83 113 211 213 192 202 258 340 131 181 145 105 86 97 72 80 110 104 90 34 26 75 36 109 133 149 159 157 152 157 159 162 165 161 156 157 158 154 151 147 151 152 147 144 138 137 137 131 130 130 128 128 128 125 124 123 126 129 129 128 125 122 117 110 102 101 106 108 109 108 106 104 100 100 97 94 96 101 102 97 94 91 89 88 86 89 93 89 84 83
71 143 80 88 66 52 80 40 16 227 306 322 296 295 15 149 195 106 94 77 118 107 90 153 90 97 97 47 82 28 94 130 144 150 153 153 157 158 163 166 162 160 161 161 155 152 150 155 153 147 146 143 143 140 135 132 131 128 125 126 128 128 128 130 131 130 132 129 122 117 113 105 101 104 107 107 104 104 103 100 98 96 96 96 100 110 111 105 94 89 91 90 94 100 93 85 84
48 166 164 94 83 71 66 14 335 328 301 308 316 298 334 271 130 84 102 97 105 100 83 87 78 112 127 74 70 14 120 134 136 140 149 153 155 158 164 166 165 163 161 161 157 153 151 156 154 149 151 149 148 142 135 131 131 131 128 131 132 131 132 132 131 132 133 128 121 115 110 105 99 99 101 100 98 96 98 101 100 98 94 91 99 115 121 119 109 98 93 93 99 102 97 89 86
26 328 90 80 68 86 107 69 344 317 291 309 299 249 302 238 116 75 89 99 77 102 126 82 86 120 104 75 43 122 134 136 135 138 147 152 155 160 163 162 167 166 161 160 158 155 152 156 157 156 157 151 149 140 134 132 133 132 132 134 130 131 134 133 132 132 130 125 121 114 107 103 99 98 95 93 93 90 91 94 95 93 90 90 96 111 126 128 120 110 99 95 97 96 98 97 91
55 330 68 86 81 121 153 122 347 314 308 10 109 242 327 118 123 130 123 119 114 116 172 118 137 153 84 59 117 128 136 137 139 141 149 153 155 160 159 157 163 165 163 163 162 159 158 158 159 164 160 150 149 144 137 138 139 135 137 136 133 134 130 130 133 132 131 130 126 114 107 103 100 97 90 89 88 87 88 88 88 88 89 93 92 101 122 129 124 121 109 95 95 97 98 100 101
120 259 81 88 107 126 131 124 328 340 341 17 160 268 2 104 133 161 132 113 124 125 218 153 148 131 78 74 122 139 144 144 144 145 152 154 156 160 158 157 157 160 164 169 169 166 163 159 162 168 157 152 155 148 141 142 143 140 143 139 133 132 128 131 136 137 138 136 132 116 108 103 98 95 89 86 83 84 88 87 88 88 88 91 91 97 109 118 123 127 120 100 96 103 103 103 107
127 220 100 93 67 107 114 123 136 90 9 276 235 284 356 117 143 147 118 111 131 153 126 122 130 99 91 143 135 172 156 150 149 147 153 153 157 160 159 160 158 160 163 168 170 168 165 161 166 169 159 157 157 146 142 146 147 144 142 132 127 130 132 135 137 140 142 139 135 119 110 105 98 92 87 83 83 86 89 89 89 89 92 90 92 96 101 112 121 128 131 116 100 104 109 108 109
136 234 94 100 55 90 130 156 145 134 191 256 252 200 56 67 132 110 118 128 149 167 113 110 128 88 159 179 175 188 156 151 150 147 151 150 154 157 158 159 158 162 161 164 167 169 166 165 168 170 165 154 147 145 148 150 151 146 134 131 136 138 134 136 141 142 142 143 136 122 114 107 100 94 88 84 85 89 94 97 95 95 97 97 98 93 97 111 120 129 141 136 121 119 121 117 112
95 85 70 83 103 141 166 167 142 135 215 242 264 110 79 10 104 109 234 140 126 144 117 146 211 117 164 179 166 158 151 151 148 145 144 143 147 148 152 153 156 163 163 167 170 173 172 170 173 175 167 147 144 154 158 153 150 144 136 138 144 145 138 139 147 144 143 148 143 135 129 117 108 101 95 90 90 94 101 103 100 98 99 101 100 93 95 106 118 132 144 150 149 143 140 134 121
29 53 64 82 136 177 176 167 172 147 229 236 299 68 97 32 62 102 43 99 125 139 78 81 22 75 139 141 140 145 148 150 147 143 138 139 142 141 146 151 157 163 167 172 175 179 179 177 178 178 168 154 155 161 160 155 149 146 143 140 146 153 145 143 150 145 144 150 163 166 147 129 117 108 101 101 99 97 103 104 100 97 96 91 87 85 90 100 114 133 150 161 165 164 164 163 150
41 57 81 118 161 194 185 174 190 136 168 209 218 146 115 98 148 129 65 75 110 97 34 60 51 55 108 123 134 142 147 150 150 145 140 142 144 144 149 155 162 167 173 177 181 186 188 185 182 179 172 166 168 165 161 160 156 155 152 144 147 158 148 146 153 150 152 157 173 184 162 143 124 113 105 100 94 95 99 94 90 85 80 76 76 82 95 108 120 139 160 171 176 184 188 190 197
67 85 76 181 198 215 199 170 178 142 145 186 184 156 138 154 158 136 103 135 134 96 46 73 76 78 108 124 134 143 150 153 156 151 149 151 152 153 155 162 167 171 177 180 185 190 193 191 186 182 177 175 176 173 168 163 162 162 158 147 144 154 152 153 155 154 160 164 178 188 175 160 135 123 116 104 95 101 103 94 90 85 84 83 85 95 107 119 128 146 168 181 187 199 207 212 219
85 98 64 252 223 233 256 174 201 218 139 107 134 152 162 193 156 132 136 150 156 143 147 118 119 131 131 135 139 147 153 157 161 158 158 160 161 162 161 166 171 175 180 183 188 192 195 194 191 187 183 184 184 185 179 166 163 168 164 151 147 155 159 160 159 160 166 171 183 187 186 176 147 137 135 123 110 110 108 103 100 94 96 94 95 103 109 120 132 150 172 190 205 220 226 231 236
76 102 145 255 207 68 344 348 271 256 134 98 87 136 163 205 149 132 137 137 223 214 199 169 154 153 147 149 148 152 157 160 164 164 166 168 169 168 166 168 173 178 181 184 190 194 198 200 198 192 188 191 192 193 188 171 164 169 172 161 157 163 166 166 166 167 170 178 185 186 197 189 161 149 144 130 115 110 100 92 90 89 91 91 99 109 116 125 139 158 178 198 221 244 255 257 257
62 357 200 276 39 87 335 343 329 272 131 96 81 126 167 158 126 148 149 155 215 210 199 177 158 156 154 154 154 157 161 164 168 171 175 178 174 170 168 168 171 178 182 184 190 195 199 203 204 199 194 195 197 196 191 179 171 171 177 175 172 174 174 173 174 174 175 182 184 184 202 203 182 159 145 129 123 115 103 95 92 96 98 99 108 115 121 134 155 196 237 256 268 276 279 279 276
81 337 14 21 32 67 330 341 337 10 96 57 61 38 338 118 136 177 166 179 225 158 146 155 152 150 149 150 156 162 168 173 176 179 183 184 180 175 172 172 174 178 182 185 190 194 195 200 202 201 199 199 199 197 194 186 181 180 182 183 184 183 180 180 181 179 178 182 180 182 200 212 208 171 142 127 128 121 112 108 101 106 110 102 99 61 4 313 312 309 309 308 306 298 288 279 271
93 348 354 37 45 47 340 355 353 11 69 1 256 358 25 149 154 178 190 247 203 115 121 133 141 142 146 152 165 171 175 180 183 186 189 190 185 179 178 178 178 181 182 184 190 193 193 197 197 197 201 205 203 196 193 189 189 191 189 188 190 191 188 185 185 182 179 178 177 184 195 208 214 177 137 125 127 124 120 117 110 114 103 335 327 330 332 332 331 330 333 336 338 330 317 293 264
117 168 249 60 40 34 354 43 33 12 30 339 36 54 153 174 159 156 203 243 126 118 122 128 137 143 152 164 173 174 177 183 185 188 192 196 187 181 184 181 180 183 184 184 188 189 193 197 193 197 202 207 206 196 193 193 196 201 198 194 191 194 195 189 187 185 181 177 180 190 194 198 199 168 138 129 126 120 115 113 98 49 336 335 334 336 338 340 347 355 359 3 6 359 352 342 297
170 149 123 77 12 9 3 31 47 23 2 1 45 31 348 252 120 139 209 172 130 119 128 135 142 152 166 173 177 176 179 184 187 189 192 195 188 184 187 184 185 188 188 188 188 187 192 196 193 197 204 209 207 196 195 196 200 206 203 197 189 191 195 189 188 188 184 181 185 193 192 188 177 156 140 114 98 91 85 51 9 348 350 350 344 345 349 354 6 11 10 11 9 4 1 353 317
126 115 98 83 48 359 23 32 9 19 19 14 64 38 338 345 6 177 216 155 135 125 134 144 151 162 174 178 183 180 184 189 188 188 187 189 187 187 188 187 190 191 189 188 190 190 190 194 194 197 205 208 203 197 198 200 203 204 199 195 190 190 192 189 189 191 188 184 187 193 189 179 161 144 110 57 32 20 3 356 358 358 4 4 356 1 10 11 12 9 7 9 5 6 8 1 340
119 123 93 55 54 34 22 43 356 8 17 344 69 60 346 354 320 213 175 155 141 134 146 156 161 171 177 180 185 184 191 193 188 187 186 189 189 187 189 191 192 190 189 190 192 192 187 190 195 198 200 199 198 199 202 204 205 199 192 192 191 191 190 189 192 193 190 188 190 188 178 167 152 128 71 24 358 351 351 354 1 4 9 13 9 13 16 9 5 3 8 11 4 4 8 2 347
123 119 94 5 25 39 1 5 346 32 26 310 22 42 343 342 294 231 166 152 145 141 154 164 171 176 178 182 184 190 196 191 191 195 194 193 190 188 190 194 194 189 189 193 196 191 184 186 193 196 194 194 197 201 205 204 203 196 190 190 193 195 192 189 193 195 196 195 189 181 172 164 148 112 52 7 348 350 353 355 0 3 7 13 12 10 7 360 356 357 5 10 1 1 5 3 350
93 53 92 24 12 13 339 338 348 48 48 317 3 35 267 263 284 233 168 150 142 146 165 172 177 178 179 185 186 197 197 192 196 198 197 192 189 190 191 195 196 191 187 192 195 189 182 183 189 194 195 195 195 199 204 202 201 197 192 192 195 198 194 191 194 197 200 192 184 177 170 163 147 118 61 2 352 354 357 358 358 359 2 6 6 3 358 354 353 351 357 4 358 357 4 7 4
44 16 55 56 25 288 316 336 29 69 43 339 19 190 238 266 310 267 195 163 150 159 177 179 180 181 183 186 188 197 198 200 200 195 193 189 186 190 192 193 194 191 186 190 194 188 183 183 183 189 193 195 194 196 200 200 199 197 195 196 198 199 194 193 194 196 193 182 178 174 169 166 161 168 178 117 355 358 359 357 356 353 351 352 350 350 350 352 356 355 356 359 355 355 1 10 16
37 28 326 5 169 269 319 332 52 96 266 356 57 181 236 275 297 293 246 180 165 167 178 182 183 182 184 189 190 192 190 191 189 185 187 186 184 188 191 192 191 190 188 190 191 187 187 186 181 185 187 190 194 196 197 195 196 197 196 197 198 196 193 192 192 190 182 176 175 174 176 182 183 192 184 160 351 349 347 349 347 334 325 328 332 337 342 351 2 5 2 356 352 353 358 10 18
358 81 263 278 153 293 321 321 30 82 89 344 64 144 223 280 287 296 257 183 182 174 180 185 185 186 183 186 186 177 161 159 166 174 181 182 183 187 189 191 191 190 189 190 189 186 188 186 184 189 189 188 190 192 192 192 195 195 195 195 194 192 192 191 188 182 175 174 177 180 191 199 197 197 188 178 218 325 331 331 322 309 307 313 316 321 332 347 357 3 6 358 352 353 358 9 19
319 60 264 256 158 167 287 305 347 42 69 198 104 102 232 278 316 315 261 179 184 184 190 191 188 188 181 178 176 168 161 165 171 174 177 179 181 184 187 190 190 187 187 190 189 185 187 185 185 190 192 190 188 187 188 190 194 194 193 193 191 191 192 189 185 180 176 177 180 189 204 205 199 197 193 199 246 295 311 304 295 295 300 307 307 309 320 333 343 350 357 1 358 357 360 10 19
197 175 201 255 199 177 246 300 293 4 37 174 139 133 240 279 323 320 289 179 186 195 194 195 191 183 177 175 173 171 170 178 185 178 175 176 177 179 183 186 186 183 183 187 186 183 183 183 185 188 190 188 187 187 186 189 192 191 191 192 191 193 191 187 185 180 178 180 184 194 204 200 194 193 196 223 262 278 287 288 283 287 297 304 304 302 308 317 327 338 342 351 359 0 4 11 20
163 171 151 162 214 226 230 298 249 196 75 158 188 175 230 275 291 316 321 184 189 202 193 191 191 179 178 178 175 176 180 189 186 177 173 173 174 175 178 182 183 180 181 184 184 182 180 179 183 186 187 186 186 188 188 189 189 189 191 191 192 193 189 186 184 179 179 181 184 192 195 193 194 199 212 242 263 264 268 277 280 286 295 300 302 300 305 313 322 332 335 339 347 355 5 12 21
124 126 124 124 158 248 277 32 108 193 231 232 211 187 226 267 282 311 320 211 187 197 192 189 188 182 182 179 180 183 186 185 172 171 171 169 171 172 174 176 177 176 177 182 183 182 181 180 182 183 184 186 187 190 190 189 188 188 192 193 192 189 186 186 183 181 183 183 186 190 192 195 202 217 232 245 256 257 259 269 275 282 291 297 301 303 304 312 322 328 330 333 340 348 358 10 18
97 129 145 104 114 227 339 323 190 177 289 296 359 326 245 330 314 302 318 237 188 193 188 190 189 187 189 181 181 184 174 147 150 162 164 164 167 170 172 173 174 175 176 181 184 183 182 183 184 182 182 187 190 191 191 191 191 190 190 190 189 187 186 186 184 185 189 190 193 196 199 204 213 229 240 245 250 252 256 263 269 277 287 294 299 299 298 308 318 320 323 327 334 346 355 6 13
98 123 143 120 194 154 57 253 149 106 284 321 24 352 25 11 275 281 304 283 228 209 186 191 187 179 186 183 178 172 157 147 157 162 162 165 168 169 172 174 177 178 177 180 184 185 184 185 187 184 183 186 188 191 192 192 193 191 189 187 185 186 188 189 190 193 197 199 203 207 211 215 221 235 242 242 245 249 256 260 265 273 283 290 292 291 292 297 308 314 321 326 332 341 352 3 11
138 138 134 176 197 157 152 242 126 85 325 58 67 9 341 255 249 272 283 268 280 288 174 181 189 185 187 183 177 170 165 166 169 168 166 167 168 171 175 177 178 179 178 179 182 185 187 187 188 186 184 185 184 188 192 192 192 191 192 192 190 193 195 198 201 205 207 209 212 215 218 222 227 237 243 240 241 246 254 260 263 270 279 284 285 285 287 288 297 308 319 329 336 343 355 9 15
235 175 167 183 168 151 140 151 126 52 39 84 85 27 308 251 226 252 281 299 291 300 128 155 198 210 196 175 176 177 174 172 170 173 173 170 172 176 178 179 180 180 181 183 184 186 188 188 189 187 185 184 185 187 189 191 193 194 197 199 200 202 204 207 211 213 213 214 216 218 220 224 230 238 241 238 238 244 253 260 262 268 272 276 281 281 281 281 285 298 313 333 348 353 0 12 28
302 220 195 171 138 135 125 124 116 29 348 221 108 108 280 266 219 230 276 323 270 306 303 187 202 211 193 176 182 185 181 178 176 177 175 174 176 178 180 181 182 184 188 189 188 188 189 188 189 189 187 187 187 189 190 193 196 198 200 202 202 203 206 210 211 210 209 211 214 217 220 224 230 236 237 236 237 241 248 255 260 266 265 265 273 276 273 274 277 286 305 330 353 358 359 6 43
306 239 173 132 123 130 134 134 117 123 237 272 126 141 272 296 245 224 221 234 242 277 275 223 202 195 197 195 191 184 182 183 182 180 175 175 176 178 182 185 186 188 192 192 190 190 190 189 190 191 190 189 189 191 194 196 199 202 203 206 207 206 208 210 209 208 208 211 216 220 224 226 230 234 233 233 237 239 241 247 258 262 260 260 264 266 269 273 274 284 305 326 343 351 354 360 36
246 234 131 122 127 128 128 118 91 165 186 281 108 117 67 292 259 216 183 200 237 245 248 240 213 200 200 205 202 189 185 182 180 181 180 180 181 182 186 189 191 191 191 191 191 192 192 191 190 191 192 192 191 193 196 199 201 203 205 209 212 211 212 213 211 213 217 223 228 230 230 229 231 233 232 232 236 237 236 242 255 258 257 260 258 256 265 273 273 281 300 309 317 330 337 340 354
253 135 111 115 118 115 109 93 76 156 104 54 240 152 88 270 278 245 163 198 234 231 229 230 218 207 200 203 208 202 194 185 180 183 186 186 185 187 190 191 193 192 190 191 192 192 194 193 191 192 195 196 195 196 199 202 203 205 207 210 214 215 220 224 226 228 230 232 235 235 232 231 232 232 231 233 232 231 233 241 253 257 258 259 252 249 259 268 267 273 288 286 291 312 317 308 308
126 106 97 95 99 99 88 93 134 54 48 279 224 185 157 275 278 6 136 205 229 223 220 224 220 214 205 202 204 203 200 192 188 187 189 191 190 190 190 191 192 193 192 192 192 192 195 195 193 194 197 198 199 200 202 204 206 209 211 214 219 222 227 232 235 236 234 233 234 233 231 230 230 232 234 233 227 225 231 242 253 257 260 257 248 247 255 258 258 267 282 277 281 303 304 290 286
123 103 93 90 78 69 63 65 114 59 7 283 240 178 134 306 274 214 182 216 223 208 208 218 219 220 214 208 201 197 197 193 193 193 193 194 192 188 187 189 192 193 193 192 192 193 195 197 196 196 198 199 201 203 205 207 209 212 215 218 225 229 230 228 228 230 229 228 230 230 230 230 232 236 240 238 232 230 237 247 255 259 260 255 247 246 251 253 253 262 275 274 280 295 296 288 289
112 98 105 96 41 24 32 351 22 68 276 283 276 150 124 258 263 236 232 249 236 202 205 211 211 211 213 212 201 193 193 191 191 193 191 188 184 183 185 188 190 190 191 193 194 195 196 197 198 198 200 201 203 205 207 209 212 215 218 222 229 233 231 227 223 223 224 225 229 230 230 232 236 239 243 243 237 236 243 249 255 260 259 254 247 244 247 249 250 259 272 273 274 284 288 288 287
88 108 108 91 44 12 9 332 6 136 252 280 184 126 118 248 250 258 258 255 243 224 218 218 214 208 203 204 202 194 187 187 189 188 184 178 177 183 186 188 187 187 190 194 195 196 197 197 199 200 202 203 204 207 211 212 215 219 221 227 233 233 230 228 225 224 227 230 232 233 234 236 239 240 241 242 238 237 243 249 255 260 259 256 248 242 244 248 252 263 274 272 270 273 281 287 284
137 136 120 116 105 67 324 281 309 264 272 302 157 151 271 278 269 268 261 260 250 234 227 226 224 212 199 192 194 197 189 185 187 184 182 182 185 188 189 188 187 189 191 193 195 196 197 197 198 201 204 205 205 209 213 216 219 221 223 229 235 234 231 230 230 231 232 234 236 238 243 245 244 244 243 242 241 240 245 250 257 261 262 260 254 247 245 246 252 263 272 272 273 275 279 285 283
165 141 116 140 151 144 185 215 204 219 270 335 2 182 201 227 256 247 243 272 285 281 263 226 238 231 200 188 186 191 197 187 182 183 185 187 189 190 191 190 190 192 192 192 194 195 196 198 199 201 204 205 207 211 214 217 219 221 223 229 235 237 237 237 236 236 236 236 236 240 247 251 252 251 251 251 249 247 250 255 259 264 265 263 260 255 250 248 252 260 268 272 273 275 279 282 282
230 110 102 164 196 144 130 171 167 155 139 118 279 242 218 212 255 264 238 280 304 328 343 325 291 316 169 187 191 189 200 196 182 182 186 187 189 190 191 192 194 195 194 194 195 195 196 198 200 202 204 205 208 211 214 215 217 220 223 228 232 233 238 241 237 233 233 235 238 242 250 255 255 254 254 255 255 254 257 262 264 268 270 269 266 261 255 252 252 256 264 270 271 272 275 279 281
142 120 173 227 191 120 108 152 105 89 135 228 248 268 292 322 308 307 9 16 327 319 324 293 270 286 156 198 201 196 203 204 191 185 184 182 184 189 192 193 195 196 197 198 199 199 199 200 200 202 204 205 207 210 213 214 215 218 224 228 228 228 232 236 232 228 228 232 238 245 252 254 251 248 249 252 255 259 265 270 272 274 275 274 270 264 261 259 258 259 262 266 269 272 274 277 279
119 184 208 201 138 83 101 126 19 43 200 272 298 254 297 344 303 315 356 336 278 260 261 269 256 223 217 224 213 210 208 212 217 200 187 180 180 187 192 195 197 198 200 202 203 204 204 203 204 203 204 205 207 209 211 212 215 219 223 224 223 223 225 226 225 225 227 231 239 248 253 249 244 246 249 251 256 263 270 275 278 279 276 275 272 268 265 263 263 263 263 265 269 271 273 275 275
125 185 177 127 138 208 87 131 149 119 208 290 305 283 272 209 230 290 297 240 239 245 253 267 261 230 229 233 219 220 211 214 238 222 199 189 184 186 190 194 198 199 202 205 206 207 206 207 208 208 209 210 210 211 211 213 216 220 223 224 223 222 222 222 223 224 228 234 242 251 257 252 248 250 252 255 261 266 272 275 279 282 278 275 272 269 268 268 268 268 267 268 269 270 271 273 274
59 64 48 60 134 162 149 146 164 152 159 243 301 327 273 228 215 214 241 246 229 225 234 260 289 301 282 250 219 216 210 209 225 227 218 209 196 192 192 195 198 199 201 204 205 207 208 210 211 212 214 214 213 213 213 214 217 220 223 224 225 225 225 226 228 229 233 238 242 250 258 259 255 253 254 259 267 270 270 271 275 280 281 277 273 271 270 271 272 272 269 267 266 267 268 271 274
82 51 26 357 67 133 153 80 84 127 145 186 222 295 266 251 199 191 251 273 234 201 199 256 318 339 333 309 239 214 224 227 230 228 231 228 214 207 200 198 199 200 201 201 203 206 208 210 212 214 215 215 215 216 216 217 217 218 221 224 227 228 229 231 233 234 237 240 242 245 251 259 259 255 256 262 269 271 269 270 274 279 282 280 278 277 277 276 274 272 267 263 263 264 265 268 273
153 156 174 174 147 126 128 334 313 107 123 162 164 218 266 262 185 223 266 277 211 151 138 178 320 348 341 342 357 214 221 241 257 258 257 250 227 218 213 206 201 199 200 200 201 204 206 208 212 214 215 216 217 218 219 220 219 219 221 224 227 230 232 234 237 239 239 239 241 242 245 253 256 256 258 262 268 272 273 274 277 280 281 281 279 279 279 279 275 270 266 263 262 262 265 268 271